Location: *
(46.1833°N, 22.7667°E)
Time: 10:51:58
(UTC+00:00)

BREEZE-M DEB (TANK) - Pass Details

Date: 17 September 2019
Orbit: 677 x 22252 km, 51.1° (Epoch: 14 October)

Event Time Altitude Azimuth Distance (km) Brightness Sun altitude
Rises 16:54:42 0° 267° (W) 3,181 8.6 -3.8°
Reaches altitude 10° 16:56:51 10° 273° (W) 2,121 7.3 -4.2°
Maximum altitude 17:00:40 54° 353° (N) 923 3.6 -4.8°
Drops below altitude 10° 17:07:01 10° 72° (ENE) 3,499 5.8 -5.9°
Enters shadow 17:10:13 - 76° (ENE) 5,002 6.6 -6.5°
